Regional Weather Roundup
Issued by NWS Kansas City/Pleasant Hill, MO

Home | Current Version | Previous Version | Graphics & Text | Print | Product List | Glossary Off
Versions: 1 2 3 4 5 6 7 8 9 10 11 12 13 14 15 16 17 18 19 20 21 22 23 24 25 26 27 28 29 30 31 32 33 34 35 36 37 38 39 40 41 42 43 44 45 46 47 48 49 50

000
ASUS43 KEAX 172310
RWREAX

WEATHER ROUNDUP FOR EASTERN KANSAS AND NORTHWEST MISSOURI
NATIONAL WEATHER SERVICE KANSAS CITY/PLEASANT HILL MO
600 PM CDT WED SEP 17 2014

KSZ040-057-103>105-MOZ028-029-037-043-180000-
...KANSAS CITY METROPOLITAN AREA...

CITY           SKY/WX    TMP DP  RH WIND       PRES   REMARKS
K.C. INTL      MOSUNNY   73  66  78 SE6       29.90F
K.C. DOWNTOWN  CLOUDY    74  66  76 NE5       29.88F
LEES SUMMIT    CLOUDY    73  66  78 VRB3      29.90S
OLATHE - IXD   CLOUDY    74  67  78 E7        29.90S
OLATHE - OJC   CLOUDY    71  66  84 E6        29.89S
LAWRENCE       CLOUDY    75  65  70 E6        29.89F

$$

MOZ001>008-011>017-020>025-030>033-038>040-044>046-053-054-180000-
...NORTHERN AND CENTRAL MISSOURI...

CITY           SKY/WX    TMP DP  RH WIND       PRES   REMARKS
ST. JOSEPH     MOSUNNY   78  65  63 CALM      29.89S
MOSBY          PTCLDY    72  64  78 SE3       29.90S
WHITEMAN AFB   PTSUNNY   71  67  88 NE6       29.90R
CLINTON        MOSUNNY   73  70  88 CALM      29.90R
SEDALIA        CLOUDY    72  67  84 NE6       29.91R
WARSAW         NOT AVBL
MARSHALL       CLOUDY    72  68  88 SE6       29.92R
CHILLICOTHE      N/A     73  65  75 CALM      29.91R
MOBERLY        SUNNY     72  59  64 E7        29.92
KIRKSVILLE     MOSUNNY   69  62  78 E9        29.93S

$$

MOZ041-047>049-056>058-063>065-088>090-097-180000-
...EASTERN AND SOUTHERN MISSOURI...

CITY           SKY/WX    TMP DP  RH WIND       PRES   REMARKS
ST. LOUIS INTL CLOUDY    65  56  72 E8        29.95R
SPIRIT OF STL  CLOUDY    65  58  78 SE5       29.93R
COLUMBIA       CLOUDY    63  62  97 NE6       29.92R FOG
JEFFERSON CITY CLOUDY    68  63  84 E8        29.91R
MEXICO         CLOUDY   N/A N/A N/A E7        29.94R
HANNIBAL       CLOUDY    66  57  72 S6        29.95R
ROLLA          FOG       66  62  87 SE5       29.92R VSB 1
LEBANON        PTSUNNY   73  64  73 S3        29.92R
OSAGE BEACH    CLOUDY    73  64  73 NE5       29.91R
SPRINGFIELD    MOSUNNY   69  64  84 S12       29.91F
BRANSON        PTSUNNY   66  64  94 N6        29.94S
NEVADA         PTSUNNY   75  70  83 NE7       29.89S
JOPLIN         MOSUNNY   71  67  87 S12       29.87F THUNDER
WEST PLAINS    MOSUNNY   65  61  87 SW5       29.93F

$$

IAZ060-094-KSZ022-034>040-054-083-096-NEZ052-066-093-180000-
...KANSAS...SOUTHEAST NEBRASKA AND IOWA...

CITY           SKY/WX    TMP DP  RH WIND       PRES   REMARKS
TOPEKA         MOSUNNY   77  68  73 E7        29.88F
MANHATTAN      SUNNY     77  67  71 E12       29.87S
EMPORIA        SUNNY     79  68  69 NE9       29.87R
CHANUTE        MOSUNNY   85  73  67 E9        29.84R HX  91
WICHITA        MOSUNNY   96  57  27 VRB7      29.80F HX  95
OMAHA          MOSUNNY   79  60  52 E6        29.89S
LINCOLN        SUNNY     79  61  53 SE7       29.90S
FALLS CITY     SUNNY     77  64  64 SE6       29.89R
LAMONI         SUNNY     73  59  61 CALM      29.92R
DES MOINES     MOSUNNY   74  57  55 E5        29.93R

$$



USA.gov is the U.S. government's official web portal to all federal, state and local government web resources and services.